St. Francis, KS

11:34 PM CDT on September 25, 2017 (GMT -0500)
Cheyenne County Municipal

Weather History for KSYF - February, 2014

Change the Weather History Date:

Friday, February 7, 2014

  Actual Average Record
Temperature  
Mean Temperature 6 °F -  
Max Temperature 15 °F 43 °F 77 °F (2015)
Min Temperature -4 °F 14 °F -4 °F (2014)
Degree Days  
Heating Degree Days 60    
Moisture  
Dew Point 1 °F    
Average Humidity 77    
Maximum Humidity 82    
Minimum Humidity 67    
Precipitation  
Precipitation 0.00 in - - ()
Sea Level Pressure  
Sea Level Pressure 29.94 in    
Wind  
Wind Speed 12 mph (South)    
Max Wind Speed 17 mph    
Max Gust Speed -    
Visibility 10 miles    
Events      
Averages and records for this station are not official NWS values.
T = Trace of Precipitation, MM = Missing Value Source: NWS Daily Summary

Daily Weather History Graph

Daily Weather History Graph

Search for Another Location

Airport or City:

Trip Planner

Search our weather history database for the weather conditions in past years. The results will help you decide how hot, cold, wet, or windy it might be!

Date:

Astronomy

Feb. 07, 2014 Rise Set
Actual Time 7:49 AM CST 6:14 PM CST
Civil Twilight 7:20 AM CST 6:42 PM CST
Nautical Twilight 6:49 AM CST 7:14 PM CST
Astronomical Twilight 6:17 AM CST 7:45 PM CST
Moon 12:27 PM CST (2/7) 2:06 AM CST (2/7)
Length of Visible Light 11h 21m
Length of Day
10h 25m
First Quarter, 59% of the Moon is Illuminated
Feb 7
First Quarter
Feb 14
Full
Feb 22
Last Quarter
Mar 1
New
Mar 8
First Quarter

Hourly Weather History & Observations

Time (CST) Temp. Windchill Dew Point Humidity Pressure Visibility Wind Dir Wind Speed Gust Speed Precip Events Conditions
12:15 AM 4.1 °F -14.7 °F -0.9 °F 80% 30.08 in 10.0 mi South 16.1 mph - N/A   Overcast
12:35 AM 4.1 °F -13.4 °F -0.8 °F 80% 30.08 in 10.0 mi South 13.8 mph - N/A   Overcast
12:55 AM 4.5 °F -13.0 °F -0.6 °F 80% 30.07 in 10.0 mi South 13.8 mph - N/A   Overcast
1:15 AM 4.6 °F -12.8 °F -0.4 °F 80% 30.06 in 10.0 mi South 13.8 mph - N/A   Overcast
1:35 AM 4.8 °F -13.8 °F -0.4 °F 79% 30.05 in 10.0 mi South 16.1 mph - N/A   Overcast
1:55 AM 4.8 °F -13.8 °F -0.4 °F 79% 30.04 in 10.0 mi South 16.1 mph - N/A   Overcast
2:15 AM 4.6 °F -14.6 °F -0.0 °F 81% 30.03 in 10.0 mi South 17.3 mph - N/A   Overcast
2:35 AM 4.6 °F -14.0 °F -0.0 °F 81% 30.03 in 10.0 mi South 16.1 mph - N/A   Overcast
2:55 AM 4.8 °F -13.2 °F -0.0 °F 80% 30.03 in 10.0 mi South 15.0 mph - N/A   Overcast
3:15 AM 4.8 °F -12.5 °F -0.4 °F 79% 30.02 in 10.0 mi South 13.8 mph - N/A   Overcast
3:35 AM 4.6 °F -12.0 °F -0.8 °F 78% 30.02 in 10.0 mi South 12.7 mph - N/A   Overcast
3:55 AM 4.5 °F -12.3 °F -1.3 °F 77% 30.02 in 10.0 mi South 12.7 mph - N/A   Overcast
4:15 AM 4.1 °F -12.7 °F -1.3 °F 78% 30.01 in 7.0 mi South 12.7 mph - N/A   Overcast
4:35 AM 3.0 °F -12.5 °F -2.2 °F 79% 30.01 in 7.0 mi South 10.4 mph - N/A   Overcast
4:55 AM 1.4 °F -13.5 °F -4.0 °F 78% 30.00 in 10.0 mi South 9.2 mph - N/A   Overcast
5:15 AM -0.2 °F -13.2 °F -5.3 °F 79% 30.01 in 10.0 mi SSE 6.9 mph - N/A   Scattered Clouds
5:35 AM -2.6 °F -17.3 °F -7.1 °F 81% 30.00 in 10.0 mi SSE 8.1 mph - N/A   Scattered Clouds
5:55 AM -3.3 °F -20.3 °F -8.0 °F 80% 29.99 in 10.0 mi SSE 10.4 mph - N/A   Mostly Cloudy
6:15 AM -4.5 °F -21.9 °F -9.2 °F 80% 30.00 in 10.0 mi South 10.4 mph - N/A   Mostly Cloudy
6:35 AM -3.8 °F -19.9 °F -8.5 °F 80% 29.99 in 10.0 mi South 9.2 mph - N/A   Mostly Cloudy
6:55 AM -4.5 °F -20.8 °F -9.0 °F 81% 29.99 in 10.0 mi SSE 9.2 mph - N/A   Scattered Clouds
7:15 AM -4.9 °F -22.3 °F -9.4 °F 81% 29.99 in 10.0 mi SSE 10.4 mph - N/A   Clear
7:35 AM -2.7 °F -18.6 °F -6.9 °F 82% 29.99 in 10.0 mi South 9.2 mph - N/A   Clear
7:55 AM -2.2 °F -15.6 °F -6.5 °F 82% 29.99 in 10.0 mi SSE 6.9 mph - N/A   Clear
8:15 AM -1.8 °F -18.5 °F -6.3 °F 81% 29.98 in 10.0 mi SSE 10.4 mph - N/A   Clear
8:35 AM -1.5 °F -14.7 °F -6.2 °F 80% 29.99 in 10.0 mi South 6.9 mph - N/A   Clear
8:55 AM -0.0 °F -15.3 °F -4.9 °F 80% 29.99 in 10.0 mi South 9.2 mph - N/A   Clear
9:15 AM 1.4 °F -14.5 °F -3.6 °F 79% 29.99 in 10.0 mi South 10.4 mph - N/A   Clear
9:35 AM 2.3 °F -13.4 °F -3.1 °F 78% 29.99 in 10.0 mi South 10.4 mph - N/A   Clear
9:55 AM 4.5 °F -10.7 °F -1.5 °F 76% 29.99 in 10.0 mi South 10.4 mph - N/A   Clear
10:15 AM 5.9 °F -8.0 °F -0.4 °F 75% 29.99 in 10.0 mi South 9.2 mph - N/A   Clear
10:35 AM 6.8 °F -6.9 °F 0.5 °F 75% 29.99 in 10.0 mi SSW 9.2 mph - N/A   Clear
10:55 AM 7.7 °F -7.4 °F 1.2 °F 75% 29.98 in 10.0 mi SSW 11.5 mph - N/A   Clear
11:15 AM 8.4 °F -7.9 °F 1.4 °F 73% 29.98 in 7.0 mi SW 13.8 mph - N/A   Clear
11:35 AM 8.6 °F -4.7 °F 1.2 °F 72% 29.98 in 10.0 mi WSW 9.2 mph - N/A   Clear
11:55 AM 7.0 °F -4.5 °F -0.9 °F 70% 29.98 in 10.0 mi WSW 6.9 mph - N/A   Clear
12:15 PM 7.5 °F -2.6 °F -0.6 °F 70% 29.97 in 10.0 mi WSW 5.8 mph - N/A   Clear
12:35 PM 7.9 °F -2.2 °F -0.4 °F 69% 29.95 in 10.0 mi SW 5.8 mph - N/A   Clear
12:55 PM 9.0 °F 2.4 °F 0.5 °F 69% 29.94 in 10.0 mi WSW 3.5 mph - N/A   Clear
1:15 PM 11.3 °F -2.9 °F 3.4 °F 70% 29.92 in 10.0 mi SSW 11.5 mph - N/A   Clear
1:35 PM 12.4 °F -1.6 °F 4.3 °F 70% 29.90 in 10.0 mi SSW 11.5 mph - N/A   Clear
1:55 PM 12.9 °F -0.9 °F 4.5 °F 69% 29.89 in 10.0 mi SSW 11.5 mph - N/A   Clear
2:15 PM 13.5 °F 0.5 °F 4.6 °F 68% 29.89 in 10.0 mi SSW 10.4 mph - N/A   Clear
2:35 PM 14.0 °F 2.0 °F 5.0 °F 67% 29.88 in 10.0 mi South 9.2 mph - N/A   Clear
2:55 PM 14.4 °F 2.4 °F 5.7 °F 69% 29.87 in 10.0 mi South 9.2 mph - N/A   Clear
3:15 PM 14.7 °F 1.4 °F 6.1 °F 69% 29.86 in 10.0 mi South 11.5 mph - N/A   Clear
3:35 PM 14.9 °F 1.6 °F 6.6 °F 70% 29.85 in 10.0 mi South 11.5 mph - N/A   Clear
3:55 PM 15.8 °F 2.7 °F 7.2 °F 69% 29.86 in 10.0 mi South 11.5 mph - N/A   Clear
4:15 PM 15.4 °F 4.6 °F 7.7 °F 71% 29.87 in 10.0 mi South 8.1 mph - N/A   Clear
4:35 PM 14.9 °F 3.1 °F 7.7 °F 73% 29.86 in 10.0 mi South 9.2 mph - N/A   Clear
4:55 PM 14.5 °F 1.9 °F 7.5 °F 74% 29.85 in 10.0 mi South 10.4 mph - N/A   Clear
5:15 PM 13.8 °F 2.7 °F 6.8 °F 74% 29.86 in 10.0 mi South 8.1 mph - N/A   Clear
5:35 PM 13.1 °F 0.1 °F 6.4 °F 75% 29.86 in 10.0 mi South 10.4 mph - N/A   Clear
5:55 PM 11.3 °F -1.3 °F 5.7 °F 78% 29.86 in 10.0 mi South 9.2 mph - N/A   Clear
6:15 PM 12.6 °F 0.2 °F 6.4 °F 77% 29.86 in 10.0 mi SSE 9.2 mph - N/A   Scattered Clouds
6:35 PM 12.0 °F -0.4 °F 6.4 °F 78% 29.87 in 10.0 mi South 9.2 mph - N/A   Scattered Clouds
6:55 PM 12.7 °F - 6.8 °F 77% 29.89 in 10.0 mi Calm Calm - N/A   Scattered Clouds
7:15 PM 12.0 °F 4.1 °F 5.9 °F 76% 29.90 in 10.0 mi South 4.6 mph - N/A   Scattered Clouds
7:35 PM 12.2 °F 2.9 °F 6.6 °F 78% 29.89 in 10.0 mi South 5.8 mph - N/A   Mostly Cloudy
7:55 PM 12.0 °F 5.9 °F 6.3 °F 78% 29.89 in 10.0 mi SSW 3.5 mph - N/A   Scattered Clouds
8:15 PM 10.4 °F -4.1 °F 5.0 °F 79% 29.88 in 10.0 mi South 11.5 mph - N/A   Clear
8:35 PM 10.0 °F -7.1 °F 4.8 °F 79% 29.87 in 10.0 mi South 16.1 mph - N/A   Clear
8:55 PM 9.5 °F -8.3 °F 4.3 °F 79% 29.86 in 10.0 mi South 17.3 mph - N/A   Clear
9:15 PM 9.1 °F -6.4 °F 3.9 °F 79% 29.87 in 10.0 mi South 12.7 mph - N/A   Clear
9:35 PM 8.6 °F -8.3 °F 3.7 °F 81% 29.87 in 10.0 mi South 15.0 mph - N/A   Clear
9:55 PM 8.4 °F -8.6 °F 3.2 °F 79% 29.86 in 10.0 mi South 15.0 mph - N/A   Clear
10:15 PM 8.1 °F -6.2 °F 2.8 °F 79% 29.86 in 10.0 mi SSW 10.4 mph - N/A   Clear
10:35 PM 7.3 °F -6.2 °F 2.1 °F 79% 29.86 in 10.0 mi SW 9.2 mph - N/A   Clear
10:55 PM 5.9 °F -5.8 °F 0.7 °F 79% 29.87 in 10.0 mi WSW 6.9 mph - N/A   Clear
11:15 PM 7.5 °F -3.9 °F 2.3 °F 79% 29.85 in 10.0 mi SW 6.9 mph - N/A   Clear
11:35 PM 9.5 °F -7.2 °F 3.9 °F 78% 29.84 in 10.0 mi SW 15.0 mph - N/A   Clear
11:55 PM 9.5 °F -2.6 °F 3.7 °F 77% 29.85 in 10.0 mi SW 8.1 mph - N/A   Clear